Location: Hlohovi?ky
(49.8934°N, 13.6739°E)
Time: 01:03:29
(UTC+00:00)

NOSS 2-1 (C) - Pass Details

Date: 19 May 2025
Orbit: 378 x 1699 km, 63.3° (Epoch: 23 June)

Event Time Altitude Azimuth Distance (km) Brightness Sun altitude
Exits shadow 22:55:32 26° 271° (W) 843 4.3 -20.1°
Maximum altitude 22:56:44 38° 319° (NW) 629 4.0 -20.1°
Drops below altitude 10° 22:59:33 10° 30° (NNE) 1,405 6.2 -20.1°
Sets 23:01:36 0° 39° (NE) 2,267 7.3 -20.1°
